Miscellaneous Local Product
Issued by NWS North Platte, NE

Home | Current Version | Previous Version | Graphics & Text | Print | Product List | Glossary On
Versions: 1 2 3 4 5 6 7 8 9 10 11 12 13 14 15 16 17 18 19 20 21 22 23 24 25 26 27 28 29 30 31 32 33 34 35 36 37 38 39 40 41 42 43 44 45 46 47 48 49 50
000
AXUS43 KLBF 270310
MISLBF


WESTERN AND NORTH CENTRAL NEBRASKA HOURLY WEATHER ROUNDUP
NATIONAL WEATHER SERVICE NORTH PLATTE NE
1000 PM CDT MON JUN 26 2017

NOTE: "FAIR" INDICATES FEW OR NO CLOUDS BELOW 12,000 FEET WITH NO
SIGNIFICANT WEATHER AND/OR OBSTRUCTIONS TO VISIBILITY.

NOTE: STATIONS NOT REPORTING VARIABLES SUCH AS SKY/WEATHER OR
PRESSURE ARE PROVIDED BY RAWS AND APRS NETWORKS AND ARE NOT UNDER
NATIONAL WEATHER SERVICE QUALITY CONTROL.

...OBSERVATIONS IN AND NEAR THE EASTERN PANHANDLE OF NEBRASKA...

CITY           SKY/WX    TMP DP  RH WIND       PRES   REMARKS
PINE RIDGE     CLEAR     66  43  43 E8        30.05F
GORDON         FAIR      64  42  44 SE8       30.07F
CHADRON        CLEAR     70  39  32 SE9       30.02F
ALLIANCE       CLEAR     67  39  35 SE13      30.08R
SIDNEY         CLEAR     67  47  48 SE14      30.13R
CRESCENT LAKE    N/A     68  40  35 SE8G16      N/A
$$

...OBSERVATIONS IN NORTHERN NEBRASKA AND FAR SOUTHERN SOUTH DAKOTA...

CITY           SKY/WX    TMP DP  RH WIND       PRES   REMARKS
WINNER         FAIR      60  40  47 SE9       30.10F
VALENTINE      CLEAR     68  39  34 SE10      30.10F
THEDFORD       PTCLDY    64  42  43 SE7       30.13S
AINSWORTH      PTCLDY    60  44  54 SE7       30.13S
O`NEILL        CLEAR     61  44  52 E6        30.14S
ORD            PTCLDY    63  45  51 E3        30.12S
BROKEN BOW     CLOUDY    63  46  54 E7        30.13S
VALENTINE NWR    N/A     67  41  39 SE8         N/A
HALSEY           N/A     67  40  36 SE6         N/A
BUTTE            N/A     61  40  45 E6          N/A
CHAMBERS         N/A     59  38  44 CALM        N/A
EWING            N/A     58  48  69 CALM        N/A
$$

...OBSERVATIONS IN SOUTHWEST NEBRASKA AND FAR NORTHEAST COLORADO...

CITY           SKY/WX    TMP DP  RH WIND       PRES   REMARKS
WRAY           FAIR      68  59  73 E13       30.11R
IMPERIAL       CLEAR     67  54  63 SE10      30.11S
OGALLALA       CLEAR     69  45  41 E8        30.11S
NORTH PLATTE   CLEAR     59  50  72 E6        30.11S
MCCOOK         CLEAR     69  58  67 E9        30.10R
LEXINGTON      CLEAR     64  52  64 E8        30.12S
STAPLETON        N/A     63  45  51 E3          N/A
GOTHENBURG       N/A     67  49  52 NE5         N/A
CALLAWAY         N/A     67  48  49 E6          N/A
$$

...OBSERVATIONS IN CENTRAL LINCOLN COUNTY AREA...

CITY           SKY/WX    TMP DP  RH WIND       PRES   REMARKS
N.P. AIRPORT   CLEAR     59  50  72 E6        30.11S
N.P. DOWNTOWN    N/A     68  49  49 E3          N/A
N.P. SOUTHEAST   N/A     66  49  55 CALM        N/A
N.P. HILLCREST   N/A     64  46  52 E12         N/A
$$

...SOME OBSERVATIONS FROM AROUND THE REGION...

CITY           SKY/WX    TMP DP  RH WIND       PRES   REMARKS
DENVER         PTCLDY    72  46  39 E10       30.10S
LIMON          CLOUDY    70  48  45 SE9       30.15S
ASPEN          CLOUDY    64  34  32 SW10      30.25S
LARAMIE        CLEAR     67  36  31 SE16      30.19F
CASPER         CLEAR     75  44  33 E12       29.99F
CHEYENNE       CLEAR     70  47  43 SE15      30.16S
SCOTTSBLUFF    CLEAR     73  43  33 SE20      30.07R
GRAND ISLAND   PTCLDY    63  53  70 E7        30.13S
OMAHA          PTCLDY    60  52  74 N5        30.12R
SIOUX FALLS    PTCLDY    57  47  69 E5        30.13S
PIERRE         PTCLDY    60  43  53 SE7       30.06F
RAPID CITY     CLEAR     69  39  33 SE16      30.01F
BISMARCK       CLEAR     62  45  53 SE9       30.01F
KANSAS CITY    PTCLDY    60  59  96 CALM      30.11R
HILL CITY      CLEAR     70  59  68 E10       30.09R
WICHITA        LGT RAIN  68  65  90 E16       30.05R
DODGE CITY     MOCLDY    73  63  70 SE8       30.05R
OKLAHOMA CITY  PTCLDY    74  55  51 SE7       30.04R
DALLAS         CLOUDY    82  70  66 SE7       30.01S
AMARILLO       CLOUDY    74  58  57 SE13      30.12S
$$




USA.gov is the U.S. government's official web portal to all federal, state and local government web resources and services.